GW3459 Weather Reports


time (UTC)temp
F
wind
direction
speed
knots
gust
knots
rain 1hr
in
rain 24hr
in
rain mn
in
humidity
%
barometer
mb
20260504013916 51 275 0.9 0.9 0.00 0.00 0.00 52 1012.9
20260504013415 51 321 0.9 0.9 0.00 0.00 0.00 52 1012.8
20260504012910 52 295 0.9 0.9 0.00 0.00 0.00 52 1012.7
20260504012408 52 319 0.0 0.9 0.00 0.00 0.00 52 1012.9
20260504011905 52 264 0.0 0.9 0.00 0.00 0.00 51 1012.8
20260504011403 52 283 0.9 0.9 0.00 0.00 0.00 51 1012.8
20260504010858 53 300 0.9 0.9 0.00 0.00 0.00 50 1012.8
20260504010354 53 196 0.9 1.7 0.00 0.00 0.00 50 1012.8
20260504005851 53 241 0.9 0.9 0.00 0.00 0.00 50 1012.9
20260504005348 53 271 0.9 1.7 0.00 0.00 0.00 50 1012.8
20260504004845 53 285 0.9 0.9 0.00 0.00 0.00 49 1013.0
20260504004343 54 208 1.7 1.7 0.00 0.00 0.00 48 1012.9
20260504003839 54 349 0.9 0.9 0.00 0.00 0.00 48 1012.6
20260504003336 54 307 0.9 0.9 0.00 0.00 0.00 47 1012.9
20260504002833 55 312 0.9 0.9 0.00 0.00 0.00 47 1012.7
20260504002330 55 122 0.9 0.9 0.00 0.00 0.00 46 1012.7
20260504001828 55 263 0.9 0.9 0.00 0.00 0.00 48 1012.6
20260504001325 55 347 0.9 1.7 0.00 0.00 0.00 47 1012.6
20260504000821 55 228 4.3 5.2 0.00 0.00 0.00 45 1012.9
20260504000318 55 253 1.7 2.6 0.00 0.00 0.00 47 1012.9
20260503235816 56 198 1.7 2.6 0.00 0.00 0.00 46 1012.8
20260503235314 56 180 3.5 5.2 0.00 0.00 0.00 46 1012.7
20260503234811 56 103 0.9 0.9 0.00 0.00 0.00 46 1012.8
20260503234309 56 223 2.6 4.3 0.00 0.00 0.00 46 1012.9
20260503233806 56 285 0.9 0.9 0.00 0.00 0.00 45 1013.0
20260503233302 56 257 1.7 1.7 0.00 0.00 0.00 45 1013.0
20260503232759 56 314 0.9 0.9 0.00 0.00 0.00 46 1012.9
20260503232256 56 255 1.7 2.6 0.00 0.00 0.00 44 1012.8
20260503231754 57 315 3.5 5.2 0.00 0.00 0.00 43 1012.7
20260503231251 57 163 2.6 2.6 0.00 0.00 0.00 44 1012.8
20260503230746 57 140 1.7 2.6 0.00 0.00 0.00 44 1012.8
20260503230243 57 229 1.7 1.7 0.00 0.00 0.00 43 1012.9
20260503225736 58 216 4.3 5.2 0.00 0.00 0.00 41 1012.7
20260503225235 58 289 0.0 0.9 0.00 0.00 0.00 43 1012.8
20260503224732 58 324 0.9 0.9 0.00 0.00 0.00 41 1012.7
20260503224230 58 323 0.9 1.7 0.00 0.00 0.00 42 1012.6
20260503223728 58 332 3.5 4.3 0.00 0.00 0.00 42 1012.6
20260503223225 57 209 2.6 4.3 0.00 0.00 0.00 42 1013.0
20260503222721 57 271 1.7 1.7 0.00 0.00 0.00 43 1013.3
20260503222219 57 301 3.5 5.2 0.00 0.00 0.00 41 1012.9
20260503221717 58 301 1.7 1.7 0.00 0.00 0.00 43 1012.9
20260503221215 58 241 2.6 2.6 0.00 0.00 0.00 42 1013.0
20260503220711 58 322 0.9 1.7 0.00 0.00 0.00 42 1013.0
20260503220208 60 242 1.7 2.6 0.00 0.00 0.00 38 1012.9
20260503215705 59 184 2.6 2.6 0.00 0.00 0.00 39 1012.9
20260503215202 58 234 3.5 5.2 0.00 0.00 0.00 40 1013.3
20260503214700 58 278 2.6 4.3 0.00 0.00 0.00 39 1012.9
20260503214155 58 156 2.6 2.6 0.00 0.00 0.00 40 1013.2
20260503213649 58 230 2.6 4.3 0.00 0.00 0.00 40 1012.9
20260503213146 59 204 4.3 7.0 0.00 0.00 0.00 38 1012.9
20260503212643 59 273 1.7 1.7 0.00 0.00 0.00 38 1012.8
20260503212141 59 262 2.6 2.6 0.00 0.00 0.00 38 1012.7
20260503211638 61 298 3.5 4.3 0.00 0.00 0.00 37 1012.8
20260503211133 60 187 3.5 4.3 0.00 0.00 0.00 36 1012.7
20260503210630 61 259 2.6 2.6 0.00 0.00 0.00 38 1012.8
20260503210127 62 336 0.9 1.7 0.00 0.00 0.00 35 1012.6
20260503205622 59 269 2.6 2.6 0.00 0.00 0.00 38 1012.6
20260503205119 60 196 1.7 1.7 0.00 0.00 0.00 38 1012.8
20260503204616 62 301 1.7 2.6 0.00 0.00 0.00 34 1013.0
20260503204113 60 162 3.5 4.3 0.00 0.00 0.00 38 1012.9
20260503203610 60 39 1.7 1.7 0.00 0.00 0.00 36 1012.8
20260503203108 61 273 2.6 4.3 0.00 0.00 0.00 38 1013.0
20260503202605 61 188 0.9 0.9 0.00 0.00 0.00 38 1012.7
20260503202103 60 163 2.6 2.6 0.00 0.00 0.00 37 1013.2
20260503201600 59 262 3.5 5.2 0.00 0.00 0.00 38 1013.3
20260503201058 60 296 3.5 4.3 0.00 0.00 0.00 39 1013.4
20260503200553 60 269 2.6 4.3 0.00 0.00 0.00 37 1013.4
20260503200050 59 291 2.6 2.6 0.00 0.00 0.00 38 1013.5
20260503195548 59 250 3.5 6.1 0.00 0.00 0.00 38 1013.7
20260503195044 59 125 1.7 2.6 0.00 0.00 0.00 38 1013.9
20260503194541 60 248 2.6 2.6 0.00 0.00 0.00 36 1013.7
20260503194041 59 209 1.7 1.7 0.00 0.00 0.00 36 1013.9
20260503193538 60 304 4.3 6.1 0.00 0.00 0.00 37 1014.1
20260503193033 59 314 2.6 2.6 0.00 0.00 0.00 38 1013.9
20260503192530 61 273 3.5 5.2 0.00 0.00 0.00 37 1014.3
20260503192026 61 288 2.6 2.6 0.00 0.00 0.00 39 1014.3
20260503191523 60 141 4.3 7.0 0.00 0.00 0.00 39 1014.2
20260503191019 58 228 1.7 2.6 0.00 0.00 0.00 39 1014.3
20260503190516 58 261 2.6 2.6 0.00 0.00 0.00 39 1014.5
20260503190014 59 202 1.7 4.3 0.00 0.00 0.00 41 1014.5
20260503185509 58 346 0.9 1.7 0.00 0.00 0.00 41 1014.5
20260503185004 59 257 2.6 2.6 0.00 0.00 0.00 41 1014.6
20260503184500 58 270 5.2 7.0 0.00 0.00 0.00 41 1014.6
20260503183956 58 317 2.6 4.3 0.00 0.00 0.00 41 1014.7
20260503183453 58 249 2.6 2.6 0.00 0.00 0.00 42 1015.0
20260503182950 57 253 4.3 6.1 0.00 0.00 0.00 42 1014.7
20260503182450 57 283 2.6 2.6 0.00 0.00 0.00 44 1014.8
20260503181946 59 212 6.1 7.8 0.00 0.00 0.00 41 1015.0
20260503181444 58 280 4.3 8.7 0.00 0.00 0.00 41 1014.9
20260503180939 58 334 3.5 4.3 0.00 0.00 0.00 42 1014.8
20260503180438 57 249 4.3 6.1 0.00 0.00 0.00 45 1015.0
20260503175934 57 214 2.6 2.6 0.00 0.00 0.00 42 1015.1
20260503175432 57 241 1.7 2.6 0.00 0.00 0.00 41 1015.0
20260503174928 57 262 3.5 5.2 0.00 0.00 0.00 41 1015.2
20260503174426 57 343 1.7 1.7 0.00 0.00 0.00 43 1015.1
20260503173926 56 256 4.3 5.2 0.00 0.00 0.00 42 1015.5
20260503173423 56 265 3.5 5.2 0.00 0.00 0.00 42 1015.3
20260503172920 57 281 0.9 1.7 0.00 0.00 0.00 45 1015.3
20260503172417 57 233 5.2 6.1 0.00 0.00 0.00 44 1015.5
20260503171913 56 168 2.6 2.6 0.00 0.00 0.00 43 1015.4
20260503171410 55 273 2.6 2.6 0.00 0.00 0.00 43 1015.5
20260503170908 55 204 1.7 2.6 0.00 0.00 0.00 45 1015.3
20260503170403 55 269 3.5 5.2 0.00 0.00 0.00 44 1015.6
20260503150756 51 177 2.6 4.3 0.00 0.00 0.00 45 1016.5
20260503150252 51 259 2.6 4.3 0.00 0.00 0.00 41 1016.8
20260503140217 48 3 1.7 1.7 0.00 0.00 0.00 50 1016.9
20260503131146 44 185 0.9 1.7 0.00 0.00 0.00 63 1017.2
20260503130643 44 182 0.9 1.7 0.00 0.00 0.00 63 1016.8
20260503130141 43 4 0.9 1.7 0.00 0.00 0.00 65 1017.0
20260503120106 38 13 1.7 2.6 0.00 0.00 0.00 78 1016.7
20260503110533 35 348 0.0 0.0 0.00 0.00 0.00 87 1016.5
20260503090420 34 325 0.0 0.0 0.00 0.00 0.00 87 1016.0
20260503081347 34 326 0.0 0.0 0.00 0.00 0.00 88 1016.0
20260503080843 34 326 0.0 0.0 0.00 0.00 0.00 88 1016.2
20260503080341 34 326 0.0 0.0 0.00 0.00 0.00 88 1016.0
20260503072817 34 326 0.0 0.0 0.00 0.00 0.00 89 1015.8
20260503072314 34 326 0.0 0.0 0.00 0.00 0.00 89 1015.6
20260503071809 34 326 0.0 0.0 0.00 0.00 0.00 88 1015.8
20260503071302 34 326 0.0 0.0 0.00 0.00 0.00 88 1016.0
20260503070758 34 326 0.0 0.0 0.00 0.00 0.00 88 1015.8
20260503070256 34 326 0.0 0.0 0.00 0.00 0.00 88 1015.7
20260503060215 36 328 0.0 0.0 0.00 0.00 0.00 86 1015.9
20260503054702 36 330 0.0 0.0 0.00 0.00 0.00 86 1016.2
20260503054159 36 335 0.0 0.0 0.00 0.00 0.00 85 1016.3
20260503053657 36 338 0.0 0.0 0.00 0.00 0.00 85 1016.2
20260503053155 36 338 0.0 0.0 0.00 0.00 0.00 85 1016.0
20260503052651 36 338 0.0 0.0 0.00 0.00 0.00 84 1016.2
20260503052148 36 338 0.0 0.0 0.00 0.00 0.00 84 1016.0
20260503051643 36 339 0.0 0.0 0.00 0.00 0.00 84 1016.5
20260503051141 36 338 0.0 0.0 0.00 0.00 0.00 84 1016.2
20260503050638 36 341 0.0 0.0 0.00 0.00 0.00 84 1016.4
20260503050134 36 336 0.0 0.0 0.00 0.00 0.00 84 1016.2
20260503045632 36 336 0.0 0.0 0.00 0.00 0.00 83 1016.2
20260503045129 36 336 0.0 0.0 0.00 0.00 0.00 83 1016.3
20260503044625 36 336 0.0 0.0 0.00 0.00 0.00 83 1016.2
20260503044123 36 336 0.0 0.0 0.00 0.00 0.00 83 1016.4
20260503043620 36 336 0.0 0.0 0.00 0.00 0.00 83 1016.3
20260503043116 37 336 0.0 0.0 0.00 0.00 0.00 82 1016.3
20260503042613 37 336 0.0 0.0 0.00 0.00 0.00 82 1016.4
20260503042109 37 336 0.0 0.0 0.00 0.00 0.00 81 1016.3
20260503041606 37 336 0.0 0.0 0.00 0.00 0.00 81 1016.4
20260503041104 37 337 0.0 0.0 0.00 0.00 0.00 81 1016.4
20260503040601 37 336 0.0 0.0 0.00 0.00 0.00 80 1016.3
20260503040058 37 336 0.0 0.0 0.00 0.07 0.07 80 1016.4
20260503035554 37 337 0.0 0.0 0.00 0.07 0.07 80 1016.4
20260503035052 37 337 0.0 0.0 0.00 0.07 0.07 80 1016.4
20260503034549 37 336 0.0 0.0 0.00 0.07 0.07 80 1016.5
20260503034046 37 336 0.0 0.0 0.00 0.07 0.07 79 1016.4
20260503033543 37 337 0.0 0.0 0.00 0.07 0.07 79 1016.5
20260503033041 37 337 0.0 0.0 0.00 0.07 0.07 79 1016.4
20260503032539 37 337 0.0 0.0 0.00 0.07 0.07 79 1016.5
20260503032037 37 336 0.0 0.0 0.00 0.07 0.07 79 1016.6
20260503031535 37 337 0.0 0.0 0.00 0.07 0.07 78 1016.4
20260503031032 37 337 0.0 0.0 0.00 0.07 0.07 78 1016.5
20260503030528 37 336 0.0 0.0 0.00 0.07 0.07 78 1016.5
20260503030025 37 336 0.0 0.0 0.00 0.07 0.07 78 1016.4
20260503025521 37 336 0.0 0.0 0.00 0.07 0.07 77 1016.6
20260503025020 37 336 0.0 0.0 0.00 0.07 0.07 77 1016.7
20260503024515 37 336 0.0 0.0 0.00 0.07 0.07 76 1016.6
20260503024013 37 337 0.0 0.0 0.00 0.07 0.07 76 1016.6
20260503023509 37 336 0.0 0.0 0.00 0.07 0.07 76 1016.7
20260503023007 37 336 0.0 0.0 0.00 0.07 0.07 76 1016.7
20260503022502 37 337 0.0 0.0 0.00 0.07 0.07 75 1016.8
20260503021957 37 337 0.0 0.0 0.00 0.07 0.07 75 1016.5
20260503021454 38 326 0.0 0.0 0.00 0.07 0.07 75 1017.0
20260503020951 38 341 0.0 0.0 0.00 0.07 0.07 75 1016.8
20260503020449 38 341 0.0 0.0 0.00 0.07 0.07 75 1016.7
20260503015945 38 341 0.0 0.0 0.00 0.07 0.07 74 1016.8
20260503015442 38 341 0.0 0.0 0.00 0.07 0.07 73 1016.6
20260503014938 38 341 0.0 0.0 0.00 0.07 0.07 72 1016.6
20260503014435 39 341 0.0 0.0 0.00 0.07 0.07 72 1016.8